Location: Normandy Village
(37.8755°N, 122.2655°W)
Time: 08:57:42
(UTC+00:00)

Shenzhou-11 Module - Pass Details

Date: 16 December 2019
Orbit: 302 x 315 km, 42.8° (Epoch: 25 January)

Event Time Altitude Azimuth Distance (km) Brightness Sun altitude
Rises 01:42:54 0° 283° (WNW) 2,072 6.8 -10.1°
Reaches altitude 10° 01:45:10 10° 266° (W) 1,234 6.0 -10.5°
Maximum altitude 01:47:21 21° 214° (SW) 794 4.4 -10.9°
Drops below altitude 10° 01:49:31 10° 162° (SSE) 1,222 4.6 -11.3°
Sets 01:51:45 0° 145° (SE) 2,044 5.6 -11.7°
